STARLINK-1816, 46714

Orbit data source: Space-Track

STARLINK-1816, 46714 is a payload satellite owned by SpaceX/Seattle (US) in LEO that was launched on Sun, 18 Oct 2020 UTC via an FALCON 9 launch vehicle from the Air Force Eastern Test Range (AFETR). Payload-class satellites include a variety of spacecraft equipped with specific instruments for various scientific and technological missions. These include communications satellites like Starlink; space stations such as the ISS; scientific satellites like the Hubble; Earth observation satellites from companies like Planet Labs, Umbra, and HawkEye 360; GPS; miniature CubeSats for education and research; and military/defense satellites.

Loading next visibility...
Identifier
46714, 2020-073AW
Orbit
LEO
Country
Flag of USUS
Related business
Manufacturer
SpaceX/Seattle
Mission
Partially operational Commercial Communications
Bus & Motor
STARLINK, Unknown motor
Mass
260 kg wet, ~248 kg dry
Launch date (UTC)
2020-10-18 (5 years ago)
Launch vehicle
FALCON 9
Launch site
Air Force Eastern Test Range (AFETR)
Object type
Payload
Rocket body
Debris
Shape & HBR
Box + 1 Pan, 10.1 m
Radar Cross Section
13.562 m², Large (>1 m²)

Expand to show TLE details & history
Last TLE update: 9 hours ago

TLE from 9 hours ago
0 STARLINK-1816
1 46714U 20073AW  26100.50002315  .00228101  00000-0  93008-3 0  9996
2 46714  53.0361  39.3658 0003151 150.2423 312.3818 15.84993851  6020
Epoch: 2026-04-10T12:00Z
TLE epoch observation values (Epoch: 2026-04-10T12:00:02.000Z)
Latitude
51.39447°
Longitude
131.03488°
Altitude
321.021 km
Speed
7.723 km/s
True Right ascension
09h 59m 06s
True Declination
51° 12' 57"
Sunlit
Object was in daylight at epoch
Visualization orbit readout
Latitude
Unknown
Longitude
Unknown
Altitude
Unknown
Speed
Unknown
Apparent Right ascension
Unknown
Apparent Declination
Unknown
Sunlit
N/A
Visualization observer readout
Local Sidereal Time
03:01:54
Azimuth
Unknown
Elevation
Unknown
Doppler factor
Unknown
Orbital elements
Apogee altitude
318.734 km
Perigee altitude
314.515 km
Semi-major axis
6,694.762 km
Eccentricity
0.00032
Inclination
53.0361°
RAAN
39.3658°
Arg. of periapsis
150.2423°
True anomaly
312.35512°
Mean anomaly
312.3818°
Eccentric anomaly
312.36846°
Mean motion
3.96224 °/min
Orbital period
90.86 mins
BSTAR
0.00093008
Loading maneuver chart data...
Computing Atmospheric mass density...

Documentation

Showing up to 5 results
|